[[{"header":{"parameterUnit":"m.s-1","parameterCategory":1,"la1":30.2992,"la2":30.254,"lo1":-89.0895,"lo2":-89.0443,"dy":0.0025,"dx":0.0025,"nx":19,"ny":19,"refTime":"2026-04-23T03:00:00:Z","depth":0,"parameterNumber":2,"parameterNumberName":"U-component_of_WINDS"},"data":[0,0,0,-3.5682,-3.5683,-3.5688,-3.5688,-3.5706,-3.5706,0,0,0,0,0,0,0,0,0,0,0,-3.5687,-3.5687,-3.5682,-3.5683,-3.5688,-3.5688,-3.5706,-3.5706,0,0,0,0,0,0,0,0,0,0,0,-3.5686,-3.5687,-3.5687,-3.5683,-3.5688,-3.5688,-3.5706,-3.5698,0,0,0,0,0,0,0,0,0,0,-3.5691,-3.57,-3.5687,-3.5687,-3.5683,-3.5688,-3.5688,-3.5697,-3.5698,-3.5708,0,-3.5717,0,-3.5712,-3.5708,-3.5708,0,0,0,-3.5678,-3.5699,-3.5696,-3.5687,-3.5683,-3.5688,-3.5684,-3.5698,-3.5699,-3.5709,-3.5717,-3.5718,-3.5712,-3.5708,-3.5708,-3.5775,-3.5776,0,0,-3.5678,-3.5691,-3.5695,-3.5697,-3.5696,-3.5684,-3.5685,-3.5698,-3.5708,-3.5717,-3.5718,-3.5712,-3.5708,-3.5708,-3.5775,-3.5776,0,0,0,-3.568,-3.5691,-3.5686,-3.5696,-3.5696,-3.5684,-3.5685,-3.5707,-3.5705,-3.5718,-3.5713,-3.5708,-3.5709,-3.5774,-3.5775,-3.5812,0,0,0,-3.568,-3.5692,-3.5686,-3.5694,-3.5696,-3.5702,-3.5694,-3.5704,-3.5705,-3.5713,-3.5708,-3.5709,-3.5774,-3.5775,-3.581,-3.5827,0,0,0,-3.5684,-3.5692,-3.5695,-3.5695,-3.5698,-3.5701,-3.5699,-3.5704,-3.5702,-3.5708,-3.5709,-3.5773,-3.5775,-3.5808,-3.5824,-3.5848,0,0,0,-3.5693,-3.5728,-3.5696,-3.5734,-3.5698,-3.5724,-3.5699,-3.5718,-3.5728,-3.5708,-3.5774,-3.5775,-3.5807,-3.5821,-3.5845,-3.5869,-3.588,0,0,-3.5744,-3.5735,-3.5756,-3.5727,-3.5763,-3.5723,-3.5764,-3.576,-3.575,-3.5768,-3.5769,-3.581,-3.5823,-3.5847,-3.5942,-3.5951,0,0,0,-3.5777,-3.5792,-3.5799,-3.5808,-3.5807,-3.5807,-3.5796,-3.5795,-3.581,-3.5761,-3.5826,-3.5833,-3.5847,-3.5857,-3.5865,-3.5875,-3.5781,-3.5781,-3.5781,-3.5867,-3.5852,-3.5885,-3.5871,-3.5881,-3.587,-3.5876,-3.5873,-3.5855,-3.5871,-3.5875,-3.5934,-3.5947,-3.5953,-3.5964,-3.5887,-3.5888,-3.5888,-3.5888,-3.594,-3.5959,-3.5935,-3.5958,-3.5942,-3.5963,-3.5954,-3.5941,-3.5957,-3.593,-3.5941,-3.591,-3.5964,-3.5972,-3.589,-3.589,-3.589,-3.5889,-3.5889,-3.5996,-3.6002,-3.6001,-3.6013,-3.6025,-3.601,-3.6027,-3.6012,-3.5998,-3.6009,-3.6012,-3.6011,-3.6008,-3.6012,-3.6012,-3.6013,-3.6013,-3.6013,-3.6013,-3.6054,-3.6051,-3.6067,-3.607,-3.6074,-3.6078,-3.6069,-3.6073,-3.6073,-3.6061,-3.6061,-3.6041,-3.5972,-3.5954,-3.6016,-3.6016,-3.6015,-3.6015,-3.6015,-3.6131,-3.6112,-3.6136,-3.6141,-3.6142,-3.6155,-3.6137,-3.6146,-3.6148,-3.6157,-3.6135,-3.6087,-3.6076,-3.607,-3.6055,-3.6139,-3.6139,-3.6139,-3.6139,-3.6177,-3.6171,-3.6193,-3.6201,-3.6207,-3.6193,-3.6222,-3.6216,-3.6206,-3.6206,-3.6193,-3.6172,-3.6167,-3.6159,-3.615,-3.6136,-3.6239,-3.6239,-3.6239,-3.6223,-3.6217,-3.6244,-3.6234,-3.6235,-3.6236,-3.6262,-3.6273,-3.6258,-3.6243,-3.6206,-3.6202,-3.6168,-3.6159,-3.614,-3.6128,-3.6101,0,0]},{"header":{"parameterUnit":"m.s-1","parameterCategory":1,"la1":30.2992,"la2":30.254,"lo1":-89.0895,"lo2":-89.0443,"dy":0.0025,"dx":0.0025,"nx":19,"ny":19,"refTime":"2026-04-23T03:00:00:Z","depth":0,"parameterNumber":3,"parameterNumberName":"V-component_of_WINDS"},"data":[0,0,0,3.8067,3.8067,3.8052,3.8052,3.8039,3.8039,0,0,0,0,0,0,0,0,0,0,0,3.8076,3.8076,3.8067,3.8067,3.8052,3.8052,3.8039,3.8039,0,0,0,0,0,0,0,0,0,0,0,3.8076,3.8076,3.8076,3.8067,3.8052,3.8052,3.8039,3.8048,0,0,0,0,0,0,0,0,0,0,3.8061,3.8073,3.8076,3.8076,3.8067,3.8052,3.8052,3.8048,3.8047,3.8048,0,3.8051,0,3.8045,3.8039,3.8039,0,0,0,3.8063,3.8074,3.8066,3.8076,3.8067,3.8052,3.8058,3.8048,3.8047,3.8047,3.8051,3.805,3.8045,3.8039,3.8039,3.8059,3.8059,0,0,3.8064,3.8075,3.8067,3.8066,3.8069,3.8058,3.8057,3.8047,3.8051,3.8051,3.805,3.8045,3.8039,3.8038,3.8059,3.8059,0,0,0,3.8069,3.8075,3.8068,3.8067,3.8064,3.8058,3.8057,3.8052,3.8048,3.805,3.8045,3.8039,3.8038,3.8058,3.8059,3.8082,0,0,0,3.8069,3.8078,3.8069,3.8075,3.8064,3.8058,3.8062,3.8049,3.8048,3.8045,3.8038,3.8038,3.8058,3.8059,3.8081,3.8091,0,0,0,3.8075,3.8079,3.8078,3.8076,3.807,3.8057,3.8054,3.8049,3.8045,3.8039,3.8038,3.8058,3.8059,3.808,3.8089,3.81,0,0,0,3.8084,3.8098,3.8079,3.8093,3.807,3.8073,3.8054,3.8055,3.8052,3.8038,3.8058,3.8059,3.8079,3.8088,3.8099,3.8111,3.8117,0,0,3.8107,3.8101,3.8109,3.8091,3.81,3.8074,3.8086,3.8073,3.8062,3.8061,3.8061,3.8081,3.8089,3.81,3.8148,3.8153,0,0,0,3.812,3.8125,3.8125,3.8124,3.8116,3.811,3.8094,3.809,3.8088,3.8064,3.8088,3.8092,3.8098,3.8103,3.8107,3.8112,3.8062,3.8062,3.8062,3.8167,3.8154,3.8166,3.8151,3.8151,3.8136,3.8134,3.8125,3.8111,3.8117,3.8116,3.8147,3.8154,3.8157,3.8162,3.8122,3.8122,3.8122,3.8122,3.82,3.8206,3.8189,3.8194,3.818,3.8184,3.8171,3.8161,3.8162,3.8146,3.8151,3.8134,3.8163,3.8166,3.8124,3.8123,3.8123,3.8123,3.8123,3.8229,3.823,3.8225,3.8224,3.8224,3.8209,3.8212,3.8199,3.8187,3.8191,3.8189,3.8189,3.8187,3.8192,3.8192,3.8192,3.8192,3.8192,3.8192,3.8261,3.8256,3.826,3.8254,3.8252,3.8249,3.8236,3.8233,3.8228,3.8218,3.8218,3.8204,3.8168,3.816,3.8194,3.8193,3.8193,3.8193,3.8193,3.8299,3.8289,3.8296,3.8294,3.8287,3.8289,3.8273,3.8271,3.8267,3.8269,3.8254,3.823,3.8222,3.8219,3.8212,3.8257,3.8257,3.8257,3.8257,3.8323,3.8319,3.8324,3.8323,3.832,3.8308,3.8316,3.8307,3.8295,3.8292,3.8284,3.8273,3.827,3.8264,3.826,3.8252,3.8307,3.8307,3.8307,3.8346,3.8341,3.835,3.834,3.8334,3.8329,3.8337,3.8336,3.8321,3.8309,3.829,3.8287,3.827,3.8265,3.8252,3.8245,3.8232,0,0]}]]